DW4698 Weather Reports


Display with metric or nautical units.
time (UTC)temp
F
wind
direction
speed
MPH
gust
MPH
rain 1hr
in
rain 24hr
in
rain mn
in
humidity
%
barometer
mb
20180821062036 70 69 0.0 0.0 0.00 0.00 0.00 45 1014.8
20180821061044 70 76 0.0 0.0 0.00 0.00 0.00 45 1014.8
20180821060026 71 69 0.0 0.0 0.00 0.00 0.00 44 1014.7
20180821055032 71 70 0.0 0.0 0.00 0.00 0.00 44 1014.7
20180821054032 70 12 0.0 0.0 0.00 0.00 0.00 44 1014.6
20180821052958 71 11 0.0 0.0 0.00 0.00 0.00 44 1014.6
20180821051944 71 21 0.0 0.0 0.00 0.00 0.00 44 1014.6
20180821050939 71 21 0.0 0.0 0.00 0.00 0.00 43 1014.6
20180821045954 72 21 0.0 0.0 0.00 0.00 0.00 43 1014.6
20180821044948 72 71 0.0 0.0 0.00 0.00 0.00 43 1014.5
20180821044008 72 119 0.0 0.0 0.00 0.00 0.00 43 1014.5
20180821042947 72 70 0.0 0.0 0.00 0.00 0.00 43 1014.4
20180821041946 73 74 0.0 0.0 0.00 0.00 0.00 42 1014.3
20180821040930 74 51 0.0 0.0 0.00 0.00 0.00 40 1014.2
20180821035945 74 54 0.0 0.0 0.00 0.00 0.00 40 1014.0
20180821034919 75 65 0.0 0.0 0.00 0.00 0.00 39 1013.9
20180821033927 75 84 0.0 0.0 0.00 0.00 0.00 38 1013.7
20180821032856 76 80 0.0 0.0 0.00 0.00 0.00 37 1013.5
20180821031837 77 74 0.0 0.0 0.00 0.00 0.00 36 1013.5
20180821030900 77 22 0.0 7.0 0.00 0.00 0.00 36 1013.2
20180821025901 77 85 0.0 0.0 0.00 0.00 0.00 35 1013.1
20180821024850 78 85 0.0 2.0 0.00 0.00 0.00 35 1012.9
20180821023855 77 71 0.0 0.0 0.00 0.00 0.00 35 1012.9
20180821022901 78 98 0.0 0.0 0.00 0.00 0.00 36 1012.7
20180821021852 78 70 0.0 0.0 0.00 0.00 0.00 35 1012.6
20180821020818 79 74 0.0 0.0 0.00 0.00 0.00 34 1012.4
20180821015809 80 59 0.0 0.0 0.00 0.00 0.00 34 1012.2
20180821014818 80 59 0.0 0.0 0.00 0.00 0.00 34 1012.2
20180821013802 81 52 0.0 0.0 0.00 0.00 0.00 33 1012.2
20180821012800 81 82 0.0 0.0 0.00 0.00 0.00 33 1012.1
20180821011815 81 74 0.0 0.0 0.00 0.00 0.00 30 1012.0
20180821010817 81 41 0.0 0.0 0.00 0.00 0.00 29 1012.0
20180821005822 81 69 0.0 0.0 0.00 0.00 0.00 30 1012.0
20180821004758 80 225 0.0 0.0 0.00 0.00 0.00 32 1011.9
20180821003801 80 225 0.0 0.0 0.00 0.00 0.00 34 1011.8
20180821002742 81 225 0.0 0.0 0.00 0.00 0.00 32 1011.7
20180821001717 81 225 0.0 0.0 0.00 0.00 0.00 37 1011.6
20180821000657 82 225 0.0 0.0 0.00 0.00 0.00 34 1011.6
20180820235630 82 225 0.0 0.0 0.00 0.00 0.00 36 1011.7
20180820234642 82 225 0.0 0.0 0.00 0.00 0.00 36 1011.6
20180820233626 82 225 0.0 0.0 0.00 0.00 0.00 33 1011.5
20180820232605 83 225 0.0 0.0 0.00 0.00 0.00 35 1011.4
20180820231606 83 225 0.0 0.0 0.00 0.00 0.00 37 1011.4
20180820230615 83 225 0.0 0.0 0.00 0.00 0.00 35 1011.5
20180820225603 83 225 0.0 0.0 0.00 0.00 0.00 31 1011.4
20180820224530 83 225 0.0 0.0 0.00 0.00 0.00 36 1011.6
20180820223515 83 225 0.0 0.0 0.00 0.00 0.00 33 1011.6
20180820222524 83 225 0.0 0.0 0.00 0.00 0.00 26 1011.6
20180820221532 82 225 0.0 0.0 0.00 0.00 0.00 31 1011.6
20180820220528 83 225 0.0 0.0 0.00 0.00 0.00 28 1011.7
20180820215457 82 225 0.0 0.0 0.00 0.00 0.00 28 1011.8
20180820214431 82 225 0.0 0.0 0.00 0.00 0.00 28 1011.9
20180820213403 82 225 0.0 0.0 0.00 0.00 0.00 33 1012.0
20180820212416 82 225 0.0 0.0 0.00 0.00 0.00 27 1012.1
20180820211341 82 225 0.0 0.0 0.00 0.00 0.00 30 1012.2
20180820210326 81 225 0.0 0.0 0.00 0.00 0.00 30 1012.2
20180820205335 81 225 0.0 0.0 0.00 0.00 0.00 33 1012.2
20180820204348 81 226 0.0 0.0 0.00 0.00 0.00 29 1012.3
20180820203317 80 228 0.0 0.0 0.00 0.00 0.00 32 1012.3
20180820202304 80 228 0.0 0.0 0.00 0.00 0.00 33 1012.2
20180820201238 80 228 0.0 0.0 0.00 0.00 0.00 29 1012.1
20180820200210 80 228 0.0 0.0 0.00 0.00 0.00 28 1012.2
20180820195208 80 228 0.0 0.0 0.00 0.00 0.00 30 1012.1
20180820194212 80 228 0.0 0.0 0.00 0.00 0.00 29 1012.1
20180820193147 79 228 0.0 0.0 0.00 0.00 0.00 31 1012.1
20180820192204 79 228 0.0 0.0 0.00 0.00 0.00 31 1012.2
20180820191219 78 228 0.0 0.0 0.00 0.00 0.00 32 1012.3
20180820190240 77 228 0.0 0.0 0.00 0.00 0.00 32 1012.3
20180820185259 77 216 0.0 0.0 0.00 0.00 0.00 32 1012.3
20180820184253 76 219 0.0 0.0 0.00 0.00 0.00 35 1012.4
20180820183302 76 219 0.0 0.0 0.00 0.00 0.00 35 1012.3
20180820182307 75 219 0.0 0.0 0.00 0.00 0.00 37 1012.4
20180820181302 75 219 0.0 0.0 0.00 0.00 0.00 35 1012.3
20180820180252 74 220 0.0 0.0 0.00 0.00 0.00 37 1012.3
20180820175232 74 207 0.0 0.0 0.00 0.00 0.00 40 1012.2
20180820174251 73 207 0.0 0.0 0.00 0.00 0.00 42 1012.1
20180820173222 72 207 0.0 0.0 0.00 0.00 0.00 44 1012.2
20180820172228 71 207 0.0 0.0 0.00 0.00 0.00 44 1012.1
20180820171204 70 207 0.0 0.0 0.00 0.00 0.00 49 1012.0
20180820170200 68 207 0.0 0.0 0.00 0.00 0.00 52 1012.1
20180820165218 67 207 0.0 0.0 0.00 0.00 0.00 54 1012.2
20180820164236 66 207 0.0 0.0 0.00 0.00 0.00 57 1012.3
20180820163248 65 207 0.0 0.0 0.00 0.00 0.00 64 1012.4
20180820162223 65 207 0.0 0.0 0.00 0.00 0.00 65 1012.4
20180820161204 63 331 0.0 0.0 0.00 0.00 0.00 67 1012.3
20180820160208 63 202 0.0 0.0 0.00 0.00 0.00 67 1012.3
20180820155154 61 202 0.0 0.0 0.00 0.00 0.00 68 1012.2
20180820154215 60 202 0.0 0.0 0.00 0.00 0.00 65 1012.3
20180820153228 59 202 0.0 0.0 0.00 0.00 0.00 70 1012.2
20180820152209 58 202 0.0 0.0 0.00 0.00 0.00 73 1012.1
20180820151153 57 202 0.0 0.0 0.00 0.00 0.00 76 1012.1
20180820150117 57 202 0.0 0.0 0.00 0.00 0.00 76 1012.0
20180820145112 57 202 0.0 0.0 0.00 0.00 0.00 75 1011.9
20180820144133 57 202 0.0 0.0 0.00 0.00 0.00 77 1011.9
20180820143140 57 202 0.0 0.0 0.00 0.00 0.00 76 1011.8
20180820142131 57 202 0.0 0.0 0.00 0.00 0.00 77 1011.8
20180820141132 56 202 0.0 0.0 0.00 0.00 0.00 77 1011.8
20180820140104 56 202 0.0 0.0 0.00 0.00 0.00 74 1011.7
20180820135045 56 202 0.0 0.0 0.00 0.00 0.00 73 1011.6
20180820134048 56 202 0.0 0.0 0.00 0.00 0.00 74 1011.7
20180820133034 57 202 0.0 0.0 0.00 0.00 0.00 71 1011.7
20180820131958 57 202 0.0 0.0 0.00 0.00 0.00 74 1011.5
20180820130947 58 202 0.0 0.0 0.00 0.00 0.00 72 1011.4
20180820125952 58 202 0.0 0.0 0.00 0.00 0.00 72 1011.3
20180820124948 58 202 0.0 0.0 0.00 0.00 0.00 74 1011.1
20180820123931 59 202 0.0 0.0 0.00 0.00 0.00 70 1011.1
20180820122938 59 202 0.0 0.0 0.00 0.00 0.00 71 1011.1
20180820121957 60 202 0.0 0.0 0.00 0.00 0.00 70 1011.0
20180820120920 60 202 0.0 0.0 0.00 0.00 0.00 70 1011.1
20180820115905 61 202 0.0 0.0 0.00 0.00 0.00 70 1011.0
20180820114847 61 202 0.0 0.0 0.00 0.00 0.00 65 1011.0
20180820113814 62 202 0.0 0.0 0.00 0.00 0.00 68 1010.9
20180820112813 62 202 0.0 0.0 0.00 0.00 0.00 65 1010.9
20180820111811 63 202 0.0 0.0 0.00 0.00 0.00 60 1010.8
20180820110807 63 202 0.0 0.0 0.00 0.00 0.00 61 1010.9
20180820105827 64 202 0.0 0.0 0.00 0.00 0.00 62 1011.0
20180820104830 65 202 0.0 0.0 0.00 0.00 0.00 61 1010.9
20180820103809 66 202 0.0 0.0 0.00 0.00 0.00 60 1011.0
20180820102751 66 202 0.0 0.0 0.00 0.00 0.00 50 1011.2
20180820101732 67 202 0.0 0.0 0.00 0.00 0.00 49 1011.2
20180820100754 68 202 0.0 0.0 0.00 0.00 0.00 47 1011.3
20180820095803 68 202 0.0 0.0 0.00 0.00 0.00 47 1011.4
20180820094742 68 202 0.0 0.0 0.00 0.00 0.00 47 1011.5
20180820093800 69 202 0.0 0.0 0.00 0.00 0.00 48 1011.6
20180820092821 69 202 0.0 0.0 0.00 0.00 0.00 49 1011.4
20180820090812 70 202 0.0 0.0 0.00 0.00 0.00 45 1011.4
20180820085753 70 201 0.0 0.0 0.00 0.00 0.00 44 1011.4
20180820084723 68 169 0.0 0.0 0.00 0.00 0.00 46 1011.6
20180820083736 66 100 0.0 0.0 0.00 0.00 0.00 52 1011.6
20180820082701 67 100 0.0 0.0 0.00 0.00 0.00 54 1010.9
20180820081644 68 100 0.0 0.0 0.00 0.00 0.00 52 1010.9
20180820080644 67 100 0.0 0.0 0.00 0.00 0.00 46 1010.8
20180820075607 67 100 0.0 0.0 0.00 0.00 0.00 45 1010.7
20180820074536 67 100 0.0 0.0 0.00 0.00 0.00 47 1010.6
20180820073534 67 100 0.0 0.0 0.00 0.00 0.00 47 1010.7
20180820072555 67 100 0.0 0.0 0.00 0.00 0.00 47 1010.7
20180820071543 67 100 0.0 0.0 0.00 0.00 0.00 52 1010.9
20180820070511 67 100 0.0 0.0 0.00 0.00 0.00 53 1011.0
20180820065517 66 100 0.0 0.0 0.00 0.00 0.00 56 1011.1
20180820064450 66 100 0.0 0.0 0.00 0.00 0.00 54 1011.2
20180820063413 66 100 0.0 0.0 0.00 0.00 0.00 57 1011.2
20180820062355 66 100 0.0 0.0 0.00 0.00 0.00 57 1011.0